SCP
0 0 0 0 0 0 0 0 0 0 0 0 0 0 0 0 0 0 0 0 0 -0 0 -0 -0 -0 -1 -1 -1 -1 -0 0 0 0 0 0 0 0 0 0 0 -0 -0 -0
0 0 0 0 0 0 0 0 0 0 0 0 0 0 0 0 0 0 0 0 0 0 0 0 -0 -0 -1 -1 -1 -1 -0 -0 0 0 0 0 0 0 0 0 0 0 0 0
0 -0 0 0 0 0 0 0 0 0 0 0 0 0 0 0 0 0 0 0 0 0 0 0 0 -0 -0 -1 -1 -0 -0 -0 -0 0 0 0 0 0 0 0 0 0 0 0
0 -0 0 0 0 0 0 0 0 0 0 0 0 0 0 0 0 0 0 0 0 0 0 0 0 0 -0 -0 -0 0 1 0 -0 -0 0 0 0 0 0 0 0 0 1 0
0 0 0 0 0 0 0 -0 -0 0 0 0 0 0 0 0 -0 0 0 0 0 0 0 0 0 -0 -0 -0 0 1 0 -1 -0 -0 0 0 0 0 0 1 1 1 1 1
0 -0 0 -0 0 0 -0 -0 0 0 0 0 0 0 0 0 0 0 0 0 0 0 0 0 0 0 0 0 0 0 0 1 1 0 -0 0 0 0 1 1 1 2 1 0
0 0 0 0 -0 -0 0 -0 0 0 0 0 0 0 0 0 0 0 0 0 0 0 0 0 0 0 0 0 0 1 0 0 1 0 0 0 0 0 1 1 2 1 1 0
0 0 0 0 -0 0 0 0 -0 -0 0 0 0 0 0 -0 0 0 0 0 0 0 0 0 0 0 0 0 1 1 0 0 0 0 0 0 0 0 1 0 1 1 0 0
0 0 0 -0 0 -0 0 0 0 0 0 0 0 -0 0 -0 0 0 0 0 1 1 2 1 1 0 1 1 1 1 0 0 0 0 0 0 -0 0 0 0 0 -0 -0 -0
0 0 0 0 0 0 0 0 0 0 -0 0 0 0 0 0 0 0 0 1 1 2 2 1 1 0 1 1 1 1 0 0 0 0 1 1 0 0 0 0 0 -0 -0 -0
0 0 0 -0 0 -0 0 0 0 0 0 0 0 -0 0 0 0 0 0 1 1 1 2 1 1 1 1 1 1 1 0 0 0 0 0 1 0 0 0 -0 -0 -0 0 -0
0 0 0 0 0 0 0 0 0 0 0 0 -0 -0 0 0 0 1 0 0 0 0 1 2 2 1 1 1 2 0 0 0 0 0 0 0 0 1 0 0 0 -0 -0 -0
0 0 0 0 0 0 0 0 0 0 0 0 -0 -0 0 0 0 0 1 1 0 0 1 1 3 2 1 2 2 1 1 1 0 0 0 1 0 1 0 0 0 0 0 0
0 0 0 0 0 0 0 0 0 0 0 0 -0 0 -0 0 0 0 0 1 1 0 0 1 2 2 2 2 2 3 3 2 3 2 2 1 1 1 0 0 0 0 0 0
0 0 0 -0 0 0 0 0 0 0 0 0 0 0 0 -0 -0 0 0 0 0 1 0 1 1 1 2 2 2 2 3 4 5 6 5 2 1 1 1 1 1 1 1 0
0 0 0 0 0 0 0 0 0 0 0 0 0 0 0 0 0 0 0 0 0 1 1 1 0 0 0 1 1 2 3 3 3 4 6 3 1 1 1 1 1 1 1 1
-0 0 0 0 0 0 0 -0 0 0 0 0 0 1 0 0 1 1 0 0 0 1 1 2 2 0 0 1 1 2 2 3 1 4 6 4 1 2 2 1 1 1 1 1
0 0 0 0 0 0 0 0 0 0 0 0 0 0 1 0 1 1 0 1 1 0 1 1 1 1 1 0 0 1 0 0 1 2 2 1 3 2 3 2 1 1 1 1
0 0 0 0 0 0 0 0 0 0 0 0 0 1 0 1 0 0 0 0 1 1 0 0 0 0 0 0 1 1 1 1 1 0 0 -0 2 5 3 5 3 2 1 1
0 0 0 0 0 -0 0 0 0 -0 0 0 0 0 1 1 0 0 0 0 0 0 0 0 0 0 0 0 0 1 1 0 0 0 1 2 6 7 9 6 4 2 2 2
0 0 0 0 0 0 0 0 0 0 -0 0 0 0 0 0 0 0 0 0 0 0 0 -0 0 0 0 0 0 0 0 0 0 0 0 0 0 2 3 3 2 1 1 1
0 0 0 0 0 0 0 0 0 0 0 -0 -0 -0 0 0 0 -0 0 0 0 0 0 0 0 0 0 0 0 0 0 0 0 0 0 0 0 0 0 1 1 0 0 0
0 0 0 0 0 0 0 0 0 0 -0 0 0 0 0 0 0 0 0 0 0 0 0 0 0 0 0 0 0 0 -0 0 0 0 0 0 0 0 0 0 0 0 0 0
0 0 0 0 0 0 0 0 0 0 0 -0 -0 0 0 1 1 1 0 0 0 0 0 0 0 0 0 0 0 0 0 0 0 -0 0 0 0 0 0 0 0 0 0 0
0 0 -0 0 0 0 0 0 0 0 0 0 0 0 0 0 0 0 0 0 0 0 0 0 0 0 0 0 0 0 0 0 0 0 0 0 0 0 0 0 0 0 0 0
0 -0 0 0 0 0 0 0 0 0 0 0 0 0 0 0 0 0 0 0 0 0 0 0 0 0 0 0 0 0 0 0 0 -0 -0 -0 -0 -0 0 0 0 0 0 0
Wind_Speed_500mb
33 27 41 43 41 45 46 47 45 37 20 34 29 40 35 37 52 46 51 39 37 51 47 59 64 61 62 60 65 66 65 62 58 54 46 41 44 43 39 37 36 34 38 39
23 32 40 43 38 45 48 49 47 44 32 39 37 42 32 33 49 42 53 37 38 35 49 58 68 68 67 67 69 71 70 69 65 56 49 41 39 38 39 38 39 39 37 38
32 36 8 25 35 47 50 47 46 48 40 37 34 45 42 31 37 40 42 39 33 40 54 57 70 75 68 70 71 73 71 71 69 60 49 47 34 34 36 39 37 39 41 38
24 28 33 31 34 37 43 40 47 45 42 35 34 29 34 25 33 28 35 34 34 35 48 56 62 73 76 68 63 72 73 70 69 68 50 54 48 43 39 33 35 36 42 43
17 13 21 30 36 33 38 37 43 39 40 39 47 24 26 26 28 30 34 37 31 31 40 51 60 65 70 72 76 78 83 76 73 73 64 56 54 43 36 41 34 40 38 40
28 26 19 26 19 24 29 31 29 28 28 30 32 35 31 25 16 27 34 31 27 23 28 36 44 51 60 70 73 79 81 82 76 79 73 67 54 50 39 39 43 37 34 36
28 14 18 28 27 28 20 28 24 26 26 27 30 26 16 20 28 15 25 30 20 18 16 27 38 49 59 72 78 75 86 84 82 80 73 71 65 57 52 42 36 37 39 38
15 19 8 17 30 27 13 28 21 28 21 18 40 19 23 29 20 12 11 16 22 32 36 31 37 42 56 68 84 78 93 86 88 79 72 67 65 58 49 40 34 32 42 37
18 12 8 16 24 22 12 11 19 20 24 21 25 43 34 27 24 14 25 25 24 25 34 41 42 42 49 61 73 81 80 88 85 80 71 66 60 53 39 37 31 20 23 24
9 21 15 13 12 21 20 8 16 13 23 29 19 35 27 27 35 20 27 26 28 26 26 28 30 36 44 51 60 70 67 77 81 75 71 64 55 47 49 42 32 27 17 16
18 13 25 18 15 19 14 23 22 27 17 30 23 22 22 24 21 26 21 26 25 23 21 11 8 19 31 39 51 58 58 60 64 71 68 63 52 50 49 41 33 34 28 23
15 14 21 34 7 10 12 10 18 20 23 27 28 34 20 1 12 14 19 21 19 12 14 4 10 21 30 40 40 45 45 46 46 50 58 57 54 52 47 41 34 31 26 18
19 14 20 29 23 18 9 6 13 17 20 33 32 27 8 4 5 15 20 22 15 10 9 10 10 20 27 33 36 39 41 39 38 43 42 40 44 54 45 41 38 33 23 20
15 23 25 27 34 25 21 15 10 17 22 32 27 33 38 17 20 21 22 21 23 12 18 15 16 19 20 24 29 34 34 32 36 36 38 38 37 35 28 38 38 34 26 23
10 25 31 30 33 34 34 31 30 26 27 24 28 34 38 18 19 21 17 13 18 23 21 24 26 21 25 25 33 45 45 52 53 48 36 18 37 29 24 23 26 28 28 24
25 24 27 33 40 43 28 32 25 28 26 26 31 33 14 8 10 13 13 23 22 22 19 23 33 18 17 27 25 28 25 38 38 38 41 16 19 23 23 27 26 26 26 26
31 22 23 32 32 35 29 34 15 16 15 20 27 20 13 6 10 21 22 23 31 32 24 24 23 31 6 24 31 36 20 23 31 36 51 62 36 27 27 28 27 28 24 22
22 22 22 25 27 34 12 9 9 8 2 11 12 13 7 8 12 17 22 20 20 23 26 19 17 8 2 5 10 35 14 13 27 33 38 38 38 45 40 36 30 28 29 25
18 20 21 21 25 30 21 9 10 10 5 15 17 14 4 9 9 19 19 14 16 23 23 19 18 11 6 6 10 11 10 15 14 33 42 42 50 48 52 50 36 35 33 29
9 19 18 20 19 32 18 9 8 18 12 23 27 14 12 19 7 11 12 10 10 11 18 19 24 21 24 23 19 15 16 18 18 16 35 35 37 48 54 47 34 32 34 29
13 12 21 21 21 9 15 18 13 4 9 22 15 16 13 9 12 6 6 8 14 12 15 17 23 31 27 21 23 30 30 41 33 32 20 21 59 54 41 28 20 28 27 28
8 11 6 7 10 13 29 10 10 6 5 12 18 25 14 9 4 7 9 9 14 14 13 17 19 23 22 22 25 39 36 38 37 31 30 34 17 13 10 9 26 30 30 32
4 11 11 12 15 15 14 11 9 7 10 11 16 13 5 16 10 11 15 12 14 15 16 19 21 24 23 23 23 28 23 21 33 34 29 27 18 10 8 10 15 11 18 24
7 13 8 22 12 19 12 5 4 7 10 8 6 8 18 19 20 23 18 14 15 16 17 17 19 23 25 26 26 28 29 16 14 12 16 18 17 17 15 11 9 8 9 15
12 9 7 14 22 9 9 8 1 5 4 10 16 20 24 22 25 22 21 18 16 16 19 18 17 20 21 19 21 26 22 21 16 9 11 15 19 23 27 24 23 16 15 17
19 16 15 12 12 10 10 14 15 17 16 21 18 19 24 22 26 25 28 21 19 20 19 20 15 16 14 13 16 11 8 8 7 10 10 15 13 12 12 13 15 17 15 19
Wind_Direction_500mb
207 232 234 243 243 259 268 269 272 283 257 274 265 278 275 276 272 263 262 259 253 234 217 208 202 199 194 197 201 208 209 209 211 208 207 204 209 211 213 215 216 220 218 224
234 243 256 258 258 258 253 261 260 263 257 271 275 271 278 276 268 263 258 255 252 229 212 205 201 199 199 197 199 208 211 211 212 212 207 207 209 214 218 225 226 225 228 230
245 263 286 256 245 247 248 251 259 256 261 243 266 270 267 252 246 250 249 246 245 226 213 204 201 202 199 200 198 204 210 213 213 210 209 212 211 212 224 225 227 228 228 232
260 285 277 239 245 255 262 253 246 260 252 252 252 275 276 283 272 257 247 227 233 218 211 210 205 204 204 200 199 205 208 211 215 214 208 213 212 213 222 224 229 229 236 236
274 296 282 254 260 271 272 276 266 247 252 254 253 254 259 261 263 261 249 226 212 208 203 205 209 210 206 202 200 204 210 206 214 215 209 217 221 225 227 227 229 235 236 238
270 280 261 276 281 271 281 269 253 269 268 253 237 255 265 258 272 271 233 226 227 220 214 206 208 208 207 206 204 207 211 209 211 216 216 222 222 220 220 226 232 243 236 242
321 284 240 236 263 260 238 243 244 233 226 242 245 263 265 288 277 272 294 286 280 264 245 214 207 206 205 204 207 204 211 208 209 214 219 223 225 229 235 239 245 246 242 242
330 328 158 206 232 269 256 259 270 286 279 328 344 220 246 236 261 303 301 294 291 282 276 261 242 224 210 203 204 201 211 210 208 210 216 222 227 228 231 240 253 254 257 255
312 306 325 266 253 239 142 236 305 247 263 274 216 232 269 254 247 47 344 338 324 309 288 275 263 241 220 204 201 200 204 210 209 209 213 220 226 224 219 225 255 239 241 232
327 296 315 309 278 227 261 182 214 193 255 248 240 273 279 280 279 333 321 339 335 332 313 292 265 235 216 206 195 196 199 203 205 205 211 216 221 216 221 231 236 222 210 234
309 269 302 271 232 293 215 221 242 272 222 257 271 259 259 253 315 315 330 346 344 338 337 319 229 190 190 194 188 191 195 193 194 199 206 211 208 210 215 226 228 224 221 244
16 298 292 296 331 283 269 307 294 270 234 242 270 278 303 255 286 331 346 350 354 348 1 35 149 148 160 167 175 181 188 191 193 194 200 202 199 203 212 221 221 223 222 236
338 296 299 266 193 200 248 334 298 269 257 267 278 278 166 129 218 351 356 0 12 34 61 49 121 133 151 150 162 170 176 181 182 184 190 191 194 202 215 214 211 210 217 227
271 281 278 287 319 323 296 285 278 279 285 293 279 277 272 36 360 354 351 356 359 56 87 80 95 106 119 134 146 148 151 161 168 172 178 183 189 203 214 214 210 213 214 220
291 282 284 279 281 287 285 286 284 266 288 277 297 302 298 21 351 343 349 10 32 48 65 89 84 93 116 117 141 151 155 156 156 156 151 177 188 195 195 206 215 205 205 212
307 285 284 283 277 272 275 272 272 276 273 277 276 283 34 17 321 47 28 57 65 62 64 89 95 111 97 103 100 110 137 173 175 157 138 206 217 180 197 206 213 221 207 214
280 278 281 272 285 286 264 265 263 292 266 322 287 1 349 21 69 30 23 36 49 59 57 29 38 77 57 78 100 105 102 164 197 207 187 200 211 183 194 221 206 219 217 208
248 262 271 268 272 267 291 55 352 313 45 330 335 329 14 39 24 358 345 358 34 54 46 47 52 91 82 70 128 100 126 159 161 197 217 217 218 207 208 215 226 222 228 215
227 251 262 262 247 260 224 67 350 353 164 5 358 1 42 336 344 63 11 5 23 47 64 67 74 79 65 28 73 134 176 207 220 223 223 227 207 200 206 209 222 238 237 232
216 237 262 275 273 260 57 19 349 297 268 6 5 343 325 334 19 81 7 18 41 42 68 71 76 77 72 74 81 65 53 15 12 291 262 249 223 206 202 210 215 239 243 245
295 258 247 255 247 116 6 345 292 244 321 344 314 323 292 313 357 5 42 61 74 81 73 70 98 93 85 83 79 76 77 65 47 44 40 224 219 193 191 184 204 233 243 247
314 318 309 291 278 239 2 300 339 48 287 309 311 306 308 286 189 157 132 107 98 82 71 75 72 77 77 84 84 88 80 44 34 31 33 39 29 110 91 70 242 246 252 255
348 12 322 328 324 354 331 334 338 314 320 312 303 337 18 128 133 87 101 108 99 96 80 72 76 80 89 104 98 87 80 37 12 24 34 43 38 54 166 201 236 267 279 273
66 9 321 327 15 328 320 30 155 81 8 295 277 103 99 76 69 74 78 80 84 85 83 81 77 77 73 86 91 93 87 81 58 45 54 73 74 69 63 45 4 317 290 268
359 110 188 324 308 296 69 62 174 280 52 61 78 97 98 90 70 76 78 69 81 83 82 81 82 80 75 72 71 80 84 84 73 58 45 42 34 32 33 24 27 16 339 303
284 278 314 304 262 263 89 77 66 107 104 85 82 83 99 94 96 80 66 71 88 104 104 95 94 97 88 69 70 76 82 92 75 350 349 360 13 17 8 6 12 14 357 348
Wind_Speed_850mb
33 27 41 43 41 45 46 47 45 37 20 34 29 40 35 37 52 46 51 39 37 51 47 59 64 61 62 60 65 66 65 62 58 54 46 41 44 43 39 37 36 34 38 39
23 32 40 43 38 45 48 49 47 44 32 39 37 42 32 33 49 42 53 37 38 35 49 58 68 68 67 67 69 71 70 69 65 56 49 41 39 38 39 38 39 39 37 38
32 36 8 25 35 47 50 47 46 48 40 37 34 45 42 31 37 40 42 39 33 40 54 57 70 75 68 70 71 73 71 71 69 60 49 47 34 34 36 39 37 39 41 38
24 28 33 31 34 37 43 40 47 45 42 35 34 29 34 25 33 28 35 34 34 35 48 56 62 73 76 68 63 72 73 70 69 68 50 54 48 43 39 33 35 36 42 43
17 13 21 30 36 33 38 37 43 39 40 39 47 24 26 26 28 30 34 37 31 31 40 51 60 65 70 72 76 78 83 76 73 73 64 56 54 43 36 41 34 40 38 40
28 26 19 26 19 24 29 31 29 28 28 30 32 35 31 25 16 27 34 31 27 23 28 36 44 51 60 70 73 79 81 82 76 79 73 67 54 50 39 39 43 37 34 36
28 14 18 28 27 28 20 28 24 26 26 27 30 26 16 20 28 15 25 30 20 18 16 27 38 49 59 72 78 75 86 84 82 80 73 71 65 57 52 42 36 37 39 38
15 19 8 17 30 27 13 28 21 28 21 18 40 19 23 29 20 12 11 16 22 32 36 31 37 42 56 68 84 78 93 86 88 79 72 67 65 58 49 40 34 32 42 37
18 12 8 16 24 22 12 11 19 20 24 21 25 43 34 27 24 14 25 25 24 25 34 41 42 42 49 61 73 81 80 88 85 80 71 66 60 53 39 37 31 20 23 24
9 21 15 13 12 21 20 8 16 13 23 29 19 35 27 27 35 20 27 26 28 26 26 28 30 36 44 51 60 70 67 77 81 75 71 64 55 47 49 42 32 27 17 16
18 13 25 18 15 19 14 23 22 27 17 30 23 22 22 24 21 26 21 26 25 23 21 11 8 19 31 39 51 58 58 60 64 71 68 63 52 50 49 41 33 34 28 23
15 14 21 34 7 10 12 10 18 20 23 27 28 34 20 1 12 14 19 21 19 12 14 4 10 21 30 40 40 45 45 46 46 50 58 57 54 52 47 41 34 31 26 18
19 14 20 29 23 18 9 6 13 17 20 33 32 27 8 4 5 15 20 22 15 10 9 10 10 20 27 33 36 39 41 39 38 43 42 40 44 54 45 41 38 33 23 20
15 23 25 27 34 25 21 15 10 17 22 32 27 33 38 17 20 21 22 21 23 12 18 15 16 19 20 24 29 34 34 32 36 36 38 38 37 35 28 38 38 34 26 23
10 25 31 30 33 34 34 31 30 26 27 24 28 34 38 18 19 21 17 13 18 23 21 24 26 21 25 25 33 45 45 52 53 48 36 18 37 29 24 23 26 28 28 24
25 24 27 33 40 43 28 32 25 28 26 26 31 33 14 8 10 13 13 23 22 22 19 23 33 18 17 27 25 28 25 38 38 38 41 16 19 23 23 27 26 26 26 26
31 22 23 32 32 35 29 34 15 16 15 20 27 20 13 6 10 21 22 23 31 32 24 24 23 31 6 24 31 36 20 23 31 36 51 62 36 27 27 28 27 28 24 22
22 22 22 25 27 34 12 9 9 8 2 11 12 13 7 8 12 17 22 20 20 23 26 19 17 8 2 5 10 35 14 13 27 33 38 38 38 45 40 36 30 28 29 25
18 20 21 21 25 30 21 9 10 10 5 15 17 14 4 9 9 19 19 14 16 23 23 19 18 11 6 6 10 11 10 15 14 33 42 42 50 48 52 50 36 35 33 29
9 19 18 20 19 32 18 9 8 18 12 23 27 14 12 19 7 11 12 10 10 11 18 19 24 21 24 23 19 15 16 18 18 16 35 35 37 48 54 47 34 32 34 29
13 12 21 21 21 9 15 18 13 4 9 22 15 16 13 9 12 6 6 8 14 12 15 17 23 31 27 21 23 30 30 41 33 32 20 21 59 54 41 28 20 28 27 28
8 11 6 7 10 13 29 10 10 6 5 12 18 25 14 9 4 7 9 9 14 14 13 17 19 23 22 22 25 39 36 38 37 31 30 34 17 13 10 9 26 30 30 32
4 11 11 12 15 15 14 11 9 7 10 11 16 13 5 16 10 11 15 12 14 15 16 19 21 24 23 23 23 28 23 21 33 34 29 27 18 10 8 10 15 11 18 24
7 13 8 22 12 19 12 5 4 7 10 8 6 8 18 19 20 23 18 14 15 16 17 17 19 23 25 26 26 28 29 16 14 12 16 18 17 17 15 11 9 8 9 15
12 9 7 14 22 9 9 8 1 5 4 10 16 20 24 22 25 22 21 18 16 16 19 18 17 20 21 19 21 26 22 21 16 9 11 15 19 23 27 24 23 16 15 17
19 16 15 12 12 10 10 14 15 17 16 21 18 19 24 22 26 25 28 21 19 20 19 20 15 16 14 13 16 11 8 8 7 10 10 15 13 12 12 13 15 17 15 19
Wind_Direction_850mb
207 232 234 243 243 259 268 269 272 283 257 274 265 278 275 276 272 263 262 259 253 234 217 208 202 199 194 197 201 208 209 209 211 208 207 204 209 211 213 215 216 220 218 224
234 243 256 258 258 258 253 261 260 263 257 271 275 271 278 276 268 263 258 255 252 229 212 205 201 199 199 197 199 208 211 211 212 212 207 207 209 214 218 225 226 225 228 230
245 263 286 256 245 247 248 251 259 256 261 243 266 270 267 252 246 250 249 246 245 226 213 204 201 202 199 200 198 204 210 213 213 210 209 212 211 212 224 225 227 228 228 232
260 285 277 239 245 255 262 253 246 260 252 252 252 275 276 283 272 257 247 227 233 218 211 210 205 204 204 200 199 205 208 211 215 214 208 213 212 213 222 224 229 229 236 236
274 296 282 254 260 271 272 276 266 247 252 254 253 254 259 261 263 261 249 226 212 208 203 205 209 210 206 202 200 204 210 206 214 215 209 217 221 225 227 227 229 235 236 238
270 280 261 276 281 271 281 269 253 269 268 253 237 255 265 258 272 271 233 226 227 220 214 206 208 208 207 206 204 207 211 209 211 216 216 222 222 220 220 226 232 243 236 242
321 284 240 236 263 260 238 243 244 233 226 242 245 263 265 288 277 272 294 286 280 264 245 214 207 206 205 204 207 204 211 208 209 214 219 223 225 229 235 239 245 246 242 242
330 328 158 206 232 269 256 259 270 286 279 328 344 220 246 236 261 303 301 294 291 282 276 261 242 224 210 203 204 201 211 210 208 210 216 222 227 228 231 240 253 254 257 255
312 306 325 266 253 239 142 236 305 247 263 274 216 232 269 254 247 47 344 338 324 309 288 275 263 241 220 204 201 200 204 210 209 209 213 220 226 224 219 225 255 239 241 232
327 296 315 309 278 227 261 182 214 193 255 248 240 273 279 280 279 333 321 339 335 332 313 292 265 235 216 206 195 196 199 203 205 205 211 216 221 216 221 231 236 222 210 234
309 269 302 271 232 293 215 221 242 272 222 257 271 259 259 253 315 315 330 346 344 338 337 319 229 190 190 194 188 191 195 193 194 199 206 211 208 210 215 226 228 224 221 244
16 298 292 296 331 283 269 307 294 270 234 242 270 278 303 255 286 331 346 350 354 348 1 35 149 148 160 167 175 181 188 191 193 194 200 202 199 203 212 221 221 223 222 236
338 296 299 266 193 200 248 334 298 269 257 267 278 278 166 129 218 351 356 0 12 34 61 49 121 133 151 150 162 170 176 181 182 184 190 191 194 202 215 214 211 210 217 227
271 281 278 287 319 323 296 285 278 279 285 293 279 277 272 36 360 354 351 356 359 56 87 80 95 106 119 134 146 148 151 161 168 172 178 183 189 203 214 214 210 213 214 220
291 282 284 279 281 287 285 286 284 266 288 277 297 302 298 21 351 343 349 10 32 48 65 89 84 93 116 117 141 151 155 156 156 156 151 177 188 195 195 206 215 205 205 212
307 285 284 283 277 272 275 272 272 276 273 277 276 283 34 17 321 47 28 57 65 62 64 89 95 111 97 103 100 110 137 173 175 157 138 206 217 180 197 206 213 221 207 214
280 278 281 272 285 286 264 265 263 292 266 322 287 1 349 21 69 30 23 36 49 59 57 29 38 77 57 78 100 105 102 164 197 207 187 200 211 183 194 221 206 219 217 208
248 262 271 268 272 267 291 55 352 313 45 330 335 329 14 39 24 358 345 358 34 54 46 47 52 91 82 70 128 100 126 159 161 197 217 217 218 207 208 215 226 222 228 215
227 251 262 262 247 260 224 67 350 353 164 5 358 1 42 336 344 63 11 5 23 47 64 67 74 79 65 28 73 134 176 207 220 223 223 227 207 200 206 209 222 238 237 232
216 237 262 275 273 260 57 19 349 297 268 6 5 343 325 334 19 81 7 18 41 42 68 71 76 77 72 74 81 65 53 15 12 291 262 249 223 206 202 210 215 239 243 245
295 258 247 255 247 116 6 345 292 244 321 344 314 323 292 313 357 5 42 61 74 81 73 70 98 93 85 83 79 76 77 65 47 44 40 224 219 193 191 184 204 233 243 247
314 318 309 291 278 239 2 300 339 48 287 309 311 306 308 286 189 157 132 107 98 82 71 75 72 77 77 84 84 88 80 44 34 31 33 39 29 110 91 70 242 246 252 255
348 12 322 328 324 354 331 334 338 314 320 312 303 337 18 128 133 87 101 108 99 96 80 72 76 80 89 104 98 87 80 37 12 24 34 43 38 54 166 201 236 267 279 273
66 9 321 327 15 328 320 30 155 81 8 295 277 103 99 76 69 74 78 80 84 85 83 81 77 77 73 86 91 93 87 81 58 45 54 73 74 69 63 45 4 317 290 268
359 110 188 324 308 296 69 62 174 280 52 61 78 97 98 90 70 76 78 69 81 83 82 81 82 80 75 72 71 80 84 84 73 58 45 42 34 32 33 24 27 16 339 303
284 278 314 304 262 263 89 77 66 107 104 85 82 83 99 94 96 80 66 71 88 104 104 95 94 97 88 69 70 76 82 92 75 350 349 360 13 17 8 6 12 14 357 348